Home > Weather > Londrina > Past weeks

Flag for Brazil Weather for the Past 2 Weeks in Londrina, Paraná, Brazil

Now
54 °F

Clear.


Feels Like: 54 °F
Forecast: 53 / 82 °F
Wind: No wind

Location: Londrina Aeroporto

Current Time: May 3, 2016 at 6:16:10 AM

Latest Report: May 3, 2016 at 5:00 AM


Visibility: 10 mi

Pressure: 30.12 "Hg (27.98 "Hg at 615m altitude)

Humidity: 77%

Dew Point: 46 °F

Location of LondrinaLocation

Historic Weather in Londrina — Graph

°F

Londrina Temperature Yesterday

Maximum temperature yesterday: 77 °F (at 4:00 PM)
Minimum temperature yesterday: 48 °F (at 7:00 AM)
Average temperature yesterday: 63 °F

High & Low Weather Summary for the Past Weeks

 TemperatureHumidityPressure
High95 °F (Apr 21, 3:00 PM)100% (Apr 25, 5:00 AM)30.24 "Hg (Apr 25, 5:00 AM)
Low45 °F (Apr 28, 4:00 AM)20% (Apr 30, 5:00 PM)29.71 "Hg (Apr 25, 4:00 PM)
Average71 °F59%30.03 "Hg
* Reported Apr 18 5:00 AM — May 3 5:00 AM, Londrina, Weather by CustomWeather, © 2016

Note: Actual official high and low records may vary slightly from our data, if they occured in-between our weather recording intervals... More about our weather records

Advertising

Londrina Weather History for the Previous 24 Hours

Scroll right to see more
 ConditionsComfort  
Time TempWeatherWind HumidityBarometerVisibility
5:00 AM
Tue, May 3
54 °FClear.No wind77%30.12 "Hg10 mi
4:00 AM55 °FClear.No wind72%30.12 "Hg10 mi
3:00 AM55 °FClear.2 mph77%30.12 "Hg10 mi
2:00 AM55 °FClear.No wind77%30.12 "Hg10 mi
1:00 AM57 °FClear.5 mph67%30.15 "Hg10 mi
12:00 AM59 °FClear.No wind63%30.15 "Hg10 mi
11:00 PM
Mon, May 2
61 °FClear.No wind55%30.15 "Hg10 mi
10:00 PM61 °FClear.No wind59%30.15 "Hg10 mi
9:00 PM63 °FClear.No wind52%30.15 "Hg10 mi
8:00 PM68 °FClear.No wind40%30.15 "Hg10 mi
7:00 PM72 °FClear.1 mph33%30.12 "Hg10 mi
6:00 PM73 °FClear.No wind29%30.12 "Hg10 mi
5:00 PM75 °FClear.5 mph27%30.09 "Hg10 mi
4:00 PM77 °FSunny.6 mph26%30.09 "Hg10 mi
3:00 PM75 °FSunny.6 mph31%30.12 "Hg10 mi
2:00 PM75 °FSunny.6 mph31%30.12 "Hg10 mi
1:00 PM73 °FSunny.7 mph31%30.15 "Hg10 mi
12:00 PM70 °FSunny.7 mph43%30.18 "Hg10 mi
11:00 AM66 °FSunny.No wind52%30.24 "Hg10 mi
10:00 AM61 °FSunny.8 mph63%30.24 "Hg10 mi
9:00 AM57 °FSunny.9 mph63%30.24 "Hg10 mi
8:00 AM54 °FSunny.8 mph72%30.21 "Hg10 mi
7:00 AM48 °FSunny.5 mph82%30.18 "Hg10 mi
6:00 AM50 °FSunny.5 mph76%30.15 "Hg10 mi
Weather by CustomWeather, © 2016

See weather overviewHow to use our weather pages